Time,TemperatureF,DewpointF,PressureIn,WindDirection,WindDirectionDegrees,WindSpeedMPH,WindSpeedGustMPH,Humidity,HourlyPrecipIn,Conditions,Clouds,dailyrainin,SoftwareType,DateUTC
2013-07-25 00:10:00,63.0,57.0,29.94,ESE,122,0.0,2.0,82,0.00,,,0.00,weatherlink.com 1.10,2013-07-25 04:10:00,
2013-07-25 00:25:00,62.7,57.0,29.94,South,170,0.0,0.0,82,0.00,,,0.00,weatherlink.com 1.10,2013-07-25 04:25:00,
2013-07-25 00:40:00,62.5,57.0,29.94,NW,309,0.0,5.0,82,0.00,,,0.00,weatherlink.com 1.10,2013-07-25 04:40:00,
2013-07-25 00:55:00,62.1,57.0,29.94,North,6,0.0,2.0,82,0.00,,,0.00,weatherlink.com 1.10,2013-07-25 04:55:00,
2013-07-25 01:10:00,61.9,56.0,29.94,East,94,0.0,2.0,82,0.00,,,0.00,weatherlink.com 1.10,2013-07-25 05:10:00,
2013-07-25 01:25:00,61.5,56.0,29.95,SE,126,0.0,2.0,82,0.00,,,0.00,weatherlink.com 1.10,2013-07-25 05:25:00,
2013-07-25 01:40:00,61.1,56.0,29.94,ESE,103,0.0,2.0,83,0.00,,,0.00,weatherlink.com 1.10,2013-07-25 05:40:00,
2013-07-25 01:55:00,60.7,56.0,29.94,SE,126,0.0,1.0,83,0.00,,,0.00,weatherlink.com 1.10,2013-07-25 05:55:00,
2013-07-25 02:10:00,60.4,56.0,29.94,ENE,58,0.0,0.0,84,0.00,,,0.00,weatherlink.com 1.10,2013-07-25 06:10:00,
2013-07-25 02:25:00,59.7,55.0,29.94,East,100,0.0,0.0,85,0.00,,,0.00,weatherlink.com 1.10,2013-07-25 06:25:00,
2013-07-25 02:40:00,59.4,55.0,29.94,ESE,106,0.0,2.0,86,0.00,,,0.00,weatherlink.com 1.10,2013-07-25 06:40:00,
2013-07-25 02:55:00,59.5,55.0,29.94,ESE,114,2.0,2.0,85,0.00,,,0.00,weatherlink.com 1.10,2013-07-25 06:55:00,
2013-07-25 03:10:00,59.4,55.0,29.94,ESE,120,0.0,3.0,85,0.00,,,0.00,weatherlink.com 1.10,2013-07-25 07:10:00,
2013-07-25 03:25:00,59.4,55.0,29.94,ESE,111,0.0,3.0,85,0.00,,,0.00,weatherlink.com 1.10,2013-07-25 07:25:00,
2013-07-25 03:40:00,59.2,55.0,29.95,East,97,0.0,1.0,85,0.00,,,0.00,weatherlink.com 1.10,2013-07-25 07:40:00,
2013-07-25 03:55:00,58.7,55.0,29.95,East,98,0.0,0.0,86,0.00,,,0.00,weatherlink.com 1.10,2013-07-25 07:55:00,
2013-07-25 04:10:00,58.5,55.0,29.95,South,190,1.0,1.0,87,0.00,,,0.00,weatherlink.com 1.10,2013-07-25 08:10:00,
2013-07-25 04:25:00,58.4,54.0,29.95,ESE,103,0.0,2.0,86,0.00,,,0.00,weatherlink.com 1.10,2013-07-25 08:25:00,
2013-07-25 04:40:00,58.2,54.0,29.95,SSW,194,0.0,2.0,87,0.00,,,0.00,weatherlink.com 1.10,2013-07-25 08:40:00,
2013-07-25 04:55:00,57.7,54.0,29.95,ESE,111,0.0,1.0,88,0.00,,,0.00,weatherlink.com 1.10,2013-07-25 08:55:00,
2013-07-25 05:10:00,57.4,54.0,29.95,ESE,110,1.0,1.0,89,0.00,,,0.00,weatherlink.com 1.10,2013-07-25 09:10:00,
2013-07-25 05:25:00,57.4,54.0,29.96,North,8,0.0,1.0,89,0.00,,,0.00,weatherlink.com 1.10,2013-07-25 09:25:00,
2013-07-25 05:40:00,57.4,54.0,29.97,East,101,0.0,2.0,89,0.00,,,0.00,weatherlink.com 1.10,2013-07-25 09:40:00,
2013-07-25 05:55:00,57.2,54.0,29.97,East,101,0.0,2.0,89,0.00,,,0.00,weatherlink.com 1.10,2013-07-25 09:55:00,
2013-07-25 06:10:00,57.2,54.0,29.98,NNW,342,0.0,1.0,89,0.00,,,0.00,weatherlink.com 1.10,2013-07-25 10:10:00,
2013-07-25 06:25:00,56.8,54.0,29.98,East,94,0.0,1.0,89,0.00,,,0.00,weatherlink.com 1.10,2013-07-25 10:25:00,
2013-07-25 06:40:00,56.5,54.0,29.98,ESE,107,0.0,0.0,90,0.00,,,0.00,weatherlink.com 1.10,2013-07-25 10:40:00,
2013-07-25 06:55:00,56.4,54.0,29.98,North,8,0.0,2.0,91,0.00,,,0.00,weatherlink.com 1.10,2013-07-25 10:55:00,
2013-07-25 07:10:00,56.5,54.0,29.99,East,87,0.0,3.0,90,0.00,,,0.00,weatherlink.com 1.10,2013-07-25 11:10:00,
2013-07-25 07:25:00,57.0,54.0,29.99,SE,128,0.0,2.0,90,0.00,,,0.00,weatherlink.com 1.10,2013-07-25 11:25:00,
2013-07-25 07:40:00,58.4,55.0,29.98,East,79,0.0,3.0,88,0.00,,,0.00,weatherlink.com 1.10,2013-07-25 11:40:00,
2013-07-25 07:55:00,61.4,57.0,29.99,East,92,1.0,3.0,84,0.00,,,0.00,weatherlink.com 1.10,2013-07-25 11:55:00,
2013-07-25 08:11:00,63.6,57.0,30.00,NW,311,1.0,2.0,80,0.00,,,0.00,weatherlink.com 1.10,2013-07-25 12:11:00,
2013-07-25 08:26:00,64.3,57.0,30.00,East,85,1.0,3.0,78,0.00,,,0.00,weatherlink.com 1.10,2013-07-25 12:26:00,
2013-07-25 08:41:00,64.8,57.0,30.00,NE,41,0.0,2.0,77,0.00,,,0.00,weatherlink.com 1.10,2013-07-25 12:41:00,
2013-07-25 08:56:00,65.7,58.0,30.00,East,91,0.0,3.0,77,0.00,,,0.00,weatherlink.com 1.10,2013-07-25 12:56:00,
2013-07-25 09:11:00,65.9,58.0,30.00,SE,135,1.0,4.0,75,0.00,,,0.00,weatherlink.com 1.10,2013-07-25 13:11:00,
2013-07-25 09:26:00,66.4,58.0,30.00,ESE,114,1.0,5.0,75,0.00,,,0.00,weatherlink.com 1.10,2013-07-25 13:26:00,
2013-07-25 09:41:00,67.0,58.0,30.00,East,91,1.0,4.0,74,0.00,,,0.00,weatherlink.com 1.10,2013-07-25 13:41:00,
2013-07-25 09:56:00,67.7,58.0,30.01,East,100,3.0,5.0,71,0.00,,,0.00,weatherlink.com 1.10,2013-07-25 13:56:00,
2013-07-25 10:11:00,68.9,57.0,30.01,East,96,1.0,6.0,66,0.00,,,0.00,weatherlink.com 1.10,2013-07-25 14:11:00,
2013-07-25 10:26:00,69.9,58.0,30.01,ENE,76,0.0,4.0,66,0.00,,,0.00,weatherlink.com 1.10,2013-07-25 14:26:00,
2013-07-25 10:41:00,70.1,57.0,30.03,East,83,2.0,5.0,64,0.00,,,0.00,weatherlink.com 1.10,2013-07-25 14:41:00,
2013-07-25 11:11:00,71.5,58.0,30.02,East,84,2.0,4.0,62,0.00,,,0.00,weatherlink.com 1.10,2013-07-25 15:11:00,
2013-07-25 11:26:00,71.8,58.0,30.02,North,1,1.0,9.0,63,0.00,,,0.00,weatherlink.com 1.10,2013-07-25 15:26:00,
2013-07-25 11:41:00,71.9,59.0,30.02,East,86,3.0,4.0,63,0.00,,,0.00,weatherlink.com 1.10,2013-07-25 15:41:00,
2013-07-25 11:56:00,71.8,57.0,30.02,WSW,246,0.0,5.0,61,0.00,,,0.00,weatherlink.com 1.10,2013-07-25 15:56:00,
2013-07-25 12:11:00,73.2,57.0,30.02,NNW,333,2.0,4.0,58,0.00,,,0.00,weatherlink.com 1.10,2013-07-25 16:11:00,
2013-07-25 12:26:00,72.7,59.0,30.03,NNE,17,2.0,5.0,62,0.00,,,0.00,weatherlink.com 1.10,2013-07-25 16:26:00,
2013-07-25 12:41:00,73.4,59.0,30.03,NE,35,5.0,5.0,62,0.00,,,0.00,weatherlink.com 1.10,2013-07-25 16:41:00,
2013-07-25 12:56:00,73.9,59.0,30.03,NW,324,3.0,7.0,59,0.00,,,0.00,weatherlink.com 1.10,2013-07-25 16:56:00,
2013-07-25 13:11:00,74.0,57.0,30.02,ESE,117,1.0,5.0,56,0.00,,,0.00,weatherlink.com 1.10,2013-07-25 17:11:00,
2013-07-25 13:26:00,74.1,57.0,30.03,NNW,338,4.0,7.0,56,0.00,,,0.00,weatherlink.com 1.10,2013-07-25 17:26:00,
2013-07-25 13:41:00,74.9,60.0,30.02,NNE,30,4.0,4.0,60,0.00,,,0.00,weatherlink.com 1.10,2013-07-25 17:41:00,
2013-07-25 13:56:00,75.2,58.0,30.02,East,101,1.0,4.0,55,0.00,,,0.00,weatherlink.com 1.10,2013-07-25 17:56:00,
2013-07-25 14:26:00,75.8,59.0,30.02,SE,129,0.0,9.0,57,0.00,,,0.00,weatherlink.com 1.10,2013-07-25 18:26:00,
2013-07-25 14:41:00,75.6,59.0,30.02,ESE,108,2.0,6.0,56,0.00,,,0.00,weatherlink.com 1.10,2013-07-25 18:41:00,
2013-07-25 14:56:00,76.1,60.0,30.02,North,8,3.0,3.0,58,0.00,,,0.00,weatherlink.com 1.10,2013-07-25 18:56:00,
2013-07-25 15:11:00,76.1,58.0,30.02,North,5,2.0,3.0,54,0.00,,,0.00,weatherlink.com 1.10,2013-07-25 19:11:00,
2013-07-25 15:26:00,76.1,58.0,30.01,SW,234,1.0,4.0,54,0.00,,,0.00,weatherlink.com 1.10,2013-07-25 19:26:00,
2013-07-25 15:42:00,76.7,59.0,30.01,West,277,1.0,4.0,55,0.00,,,0.00,weatherlink.com 1.10,2013-07-25 19:42:00,
2013-07-25 15:56:00,75.9,59.0,30.01,ESE,104,0.0,4.0,57,0.00,,,0.00,weatherlink.com 1.10,2013-07-25 19:56:00,
2013-07-25 16:12:00,76.4,58.0,30.01,East,97,2.0,3.0,54,0.00,,,0.00,weatherlink.com 1.10,2013-07-25 20:12:00,
2013-07-25 16:27:00,77.0,59.0,30.01,ENE,77,0.0,4.0,54,0.00,,,0.00,weatherlink.com 1.10,2013-07-25 20:27:00,
2013-07-25 16:42:00,77.4,62.0,30.01,NNE,27,1.0,7.0,59,0.00,,,0.00,weatherlink.com 1.10,2013-07-25 20:42:00,
2013-07-25 16:57:00,76.7,60.0,30.00,NE,48,0.0,6.0,56,0.00,,,0.00,weatherlink.com 1.10,2013-07-25 20:57:00,
2013-07-25 17:12:00,77.3,59.0,30.00,WSW,239,2.0,3.0,54,0.00,,,0.00,weatherlink.com 1.10,2013-07-25 21:12:00,
2013-07-25 17:27:00,77.6,59.0,30.00,West,266,0.0,3.0,53,0.00,,,0.00,weatherlink.com 1.10,2013-07-25 21:27:00,
2013-07-25 17:42:00,77.9,59.0,30.00,NE,51,0.0,2.0,53,0.00,,,0.00,weatherlink.com 1.10,2013-07-25 21:42:00,
2013-07-25 17:57:00,78.0,59.0,30.00,East,101,0.0,2.0,53,0.00,,,0.00,weatherlink.com 1.10,2013-07-25 21:57:00,
2013-07-25 18:12:00,77.5,59.0,30.00,North,349,0.0,4.0,53,0.00,,,0.00,weatherlink.com 1.10,2013-07-25 22:12:00,
2013-07-25 18:42:00,76.5,61.0,30.00,North,1,0.0,0.0,58,0.00,,,0.00,weatherlink.com 1.10,2013-07-25 22:42:00,
2013-07-25 18:57:00,77.3,60.0,30.00,North,1,2.0,3.0,56,0.00,,,0.00,weatherlink.com 1.10,2013-07-25 22:57:00,
2013-07-25 19:12:00,75.3,60.0,30.00,SSE,159,0.0,3.0,59,0.00,,,0.00,weatherlink.com 1.10,2013-07-25 23:12:00,
2013-07-25 19:27:00,73.3,61.0,30.00,SSE,159,0.0,1.0,65,0.00,,,0.00,weatherlink.com 1.10,2013-07-25 23:27:00,
2013-07-25 19:42:00,72.8,61.0,30.00,SSE,160,0.0,0.0,67,0.00,,,0.00,weatherlink.com 1.10,2013-07-25 23:42:00,
2013-07-25 19:57:00,71.4,61.0,30.00,SSE,159,0.0,0.0,70,0.00,,,0.00,weatherlink.com 1.10,2013-07-25 23:57:00,
2013-07-25 20:12:00,69.5,60.0,30.00,SSE,160,0.0,0.0,71,0.00,,,0.00,weatherlink.com 1.10,2013-07-26 00:12:00,
2013-07-25 20:27:00,68.5,58.0,30.00,SSE,160,0.0,0.0,70,0.00,,,0.00,weatherlink.com 1.10,2013-07-26 00:27:00,
2013-07-25 20:42:00,67.8,59.0,30.00,SSE,159,0.0,0.0,73,0.00,,,0.00,weatherlink.com 1.10,2013-07-26 00:42:00,
2013-07-25 20:57:00,66.9,59.0,30.00,SSE,159,0.0,0.0,75,0.00,,,0.00,weatherlink.com 1.10,2013-07-26 00:57:00,
2013-07-25 21:12:00,66.2,58.0,30.00,SSE,159,0.0,0.0,75,0.00,,,0.00,weatherlink.com 1.10,2013-07-26 01:12:00,
2013-07-25 21:27:00,65.4,57.0,30.00,SSE,160,0.0,0.0,74,0.00,,,0.00,weatherlink.com 1.10,2013-07-26 01:27:00,
2013-07-25 21:42:00,64.9,58.0,30.01,SSE,159,0.0,0.0,77,0.00,,,0.00,weatherlink.com 1.10,2013-07-26 01:42:00,
2013-07-25 21:57:00,64.9,57.0,30.01,SSE,159,0.0,0.0,75,0.00,,,0.00,weatherlink.com 1.10,2013-07-26 01:57:00,
2013-07-25 22:12:00,64.6,58.0,30.01,SSE,159,0.0,0.0,80,0.00,,,0.00,weatherlink.com 1.10,2013-07-26 02:12:00,
2013-07-25 22:27:00,64.7,59.0,30.02,SSE,159,0.0,0.0,81,0.00,,,0.00,weatherlink.com 1.10,2013-07-26 02:27:00,
2013-07-25 22:42:00,64.4,59.0,30.02,SSE,159,0.0,0.0,82,0.00,,,0.00,weatherlink.com 1.10,2013-07-26 02:42:00,
2013-07-25 22:57:00,64.3,59.0,30.01,SSE,159,0.0,0.0,82,0.00,,,0.00,weatherlink.com 1.10,2013-07-26 02:57:00,
2013-07-25 23:12:00,62.9,59.0,30.02,SSE,159,0.0,0.0,86,0.00,,,0.00,weatherlink.com 1.10,2013-07-26 03:12:00,
2013-07-25 23:27:00,63.4,59.0,30.02,SSE,159,0.0,0.0,86,0.00,,,0.00,weatherlink.com 1.10,2013-07-26 03:27:00,
2013-07-25 23:42:00,63.2,59.0,30.02,SSE,159,0.0,0.0,85,0.00,,,0.00,weatherlink.com 1.10,2013-07-26 03:42:00,
2013-07-25 23:57:00,62.6,58.0,30.02,SSE,159,0.0,0.0,85,0.00,,,0.00,weatherlink.com 1.10,2013-07-26 03:57:00,